Date String (YYYY-MM-DD hh:mm:ss) UTC,Instrument flags,Ambient pressure (hPa),Sample flow (lpm),Bypass flow (lpm),Sample temperature (°C),Ambient temperature (°C),ASC tube jacket temperature (°C),LED temperature (°C),Box temperature (°C),Sample RH (%),Span deviation,Mass concentration (μg/m³),Mass concentration (μg/m³),Mass concentration (μg/m³)
DateTimeUTC,F1_M11,P_M11,Q1_M11,Q2_M11,T1_M11,T2_M11,T3_M11,T4_M11,T5_M11,U1_M11,ZSPAN_M11,X0_M11,X2_M11,X1_M11
2022-08-09 14:00:00,,0831.6,5.00,0.00,29.8,28.5,00.0,38.6,31.7,28.9,0000.0,0010.83,0005.28,0004.69
2022-08-09 14:01:00,,0831.6,5.01,0.00,29.8,28.6,00.0,38.6,31.7,29.0,0000.0,0011.27,0005.30,0004.69
2022-08-09 14:02:00,,0831.5,5.00,0.00,29.8,28.6,00.0,38.6,31.7,29.0,0000.0,0011.16,0005.34,0004.70
2022-08-09 14:03:00,,0831.6,4.99,0.00,29.8,28.7,00.0,38.6,31.7,29.4,0000.0,0011.14,0005.37,0004.71
2022-08-09 14:04:00,,0831.5,5.01,0.00,29.8,28.8,00.0,38.6,31.7,28.1,0000.0,0009.71,0005.37,0004.71
2022-08-09 14:05:00,,0831.5,5.00,0.00,29.9,28.8,00.0,38.6,31.8,28.1,0000.0,0009.70,0005.37,0004.69
2022-08-09 14:06:00,,0831.5,5.00,0.00,29.9,28.9,00.0,38.6,31.8,28.4,0000.0,0009.91,0005.39,0004.67
2022-08-09 14:07:00,,0831.5,5.00,0.00,29.9,28.9,00.0,38.7,31.8,28.9,0000.0,0009.89,0005.38,0004.65
2022-08-09 14:08:00,,0831.5,5.01,0.00,29.9,29.0,00.0,38.7,31.9,27.9,0000.0,0009.90,0005.38,0004.65
2022-08-09 14:09:00,,0831.5,5.00,0.00,29.9,29.0,00.0,38.7,31.9,27.0,0000.0,0009.81,0005.37,0004.63
2022-08-09 14:10:00,,0831.5,4.99,0.00,30.0,28.8,00.0,38.7,31.9,27.2,0000.0,0009.94,0005.43,0004.62
2022-08-09 14:11:00,,0831.5,4.99,0.00,29.9,28.1,00.0,38.7,31.7,26.9,0000.0,0010.25,0005.42,0004.63
2022-08-09 14:12:00,,0831.5,5.00,0.00,29.9,27.7,00.0,38.6,31.6,27.2,0000.0,0009.78,0005.43,0004.64
2022-08-09 14:13:00,,0831.5,5.01,0.00,29.8,27.6,00.0,38.6,31.5,27.4,0000.0,0010.76,0005.42,0004.65
2022-08-09 14:14:00,,0831.6,5.00,0.00,29.8,27.7,00.0,38.6,31.5,27.7,0000.0,0011.04,0005.41,0004.65
2022-08-09 14:15:00,,0831.6,5.01,0.00,29.7,27.8,00.0,38.6,31.5,27.2,0000.0,0011.11,0005.42,0004.66
2022-08-09 14:16:00,,0831.6,5.01,0.00,29.7,27.9,00.0,38.6,31.5,26.9,0000.0,0011.40,0005.43,0004.66
2022-08-09 14:17:00,,0831.7,4.99,0.00,29.7,28.0,00.0,38.6,31.5,27.0,0000.0,0011.89,0005.41,0004.68
2022-08-09 14:18:00,,0831.6,5.00,0.00,29.7,28.2,00.0,38.6,31.6,27.7,0000.0,0012.24,0005.44,0004.69
2022-08-09 14:19:00,,0831.7,4.99,0.00,29.7,28.3,00.0,38.6,31.6,28.0,0000.0,0012.36,0005.49,0004.70
2022-08-09 14:20:00,,0831.6,5.00,0.00,29.7,28.4,00.0,38.6,31.6,27.9,0000.0,0012.62,0005.56,0004.71
2022-08-09 14:21:00,,0831.6,5.00,0.00,29.7,28.5,00.0,38.6,31.7,27.8,0000.0,0012.72,0005.59,0004.72
2022-08-09 14:22:00,,0831.7,5.00,0.00,29.8,28.6,00.0,38.6,31.7,28.3,0000.0,0012.51,0005.63,0004.73
2022-08-09 14:23:00,,0831.6,5.00,0.00,29.8,28.6,00.0,38.6,31.7,27.9,0000.0,0012.51,0005.66,0004.74
2022-08-09 14:24:00,,0831.6,5.00,0.00,29.8,28.7,00.0,38.6,31.8,27.3,0000.0,0011.61,0005.73,0004.76
2022-08-09 14:25:00,,0831.6,5.00,0.00,29.8,28.8,00.0,38.6,31.8,27.6,0000.0,0011.43,0005.76,0004.78
2022-08-09 14:26:00,,0831.6,5.00,0.00,29.9,28.9,00.0,38.6,31.8,28.0,0000.0,0011.97,0005.79,0004.79
2022-08-09 14:27:00,,0831.6,5.00,0.00,29.9,28.9,00.0,38.7,31.9,28.0,0000.0,0012.31,0005.80,0004.80
2022-08-09 14:28:00,,0831.7,4.99,0.00,29.9,28.5,00.0,38.6,31.8,27.6,0000.0,0012.23,0005.78,0004.80
2022-08-09 14:29:00,,0831.7,5.01,0.00,29.9,27.9,00.0,38.6,31.6,28.4,0000.0,0011.85,0005.76,0004.81
2022-08-09 14:30:00,,0831.7,4.99,0.00,29.8,27.7,00.0,38.6,31.6,28.5,0000.0,0011.79,0005.75,0004.81
2022-08-09 14:31:00,,0831.7,5.01,0.00,29.8,27.7,00.0,38.6,31.5,28.3,0000.0,0011.68,0005.72,0004.82
2022-08-09 14:32:00,,0831.7,5.00,0.00,29.7,27.8,00.0,38.6,31.5,28.8,0000.0,0012.42,0005.68,0004.82
2022-08-09 14:33:00,,0831.7,4.99,0.00,29.7,27.9,00.0,38.6,31.5,28.6,0000.0,0013.15,0005.68,0004.82
2022-08-09 14:34:00,,0831.7,4.99,0.00,29.7,28.0,00.0,38.5,31.5,28.7,0000.0,0013.05,0005.67,0004.81
2022-08-09 14:35:00,,0831.7,5.01,0.00,29.7,28.1,00.0,38.5,31.5,28.4,0000.0,0013.39,0005.68,0004.80
2022-08-09 14:36:00,,0831.7,5.01,0.00,29.7,28.2,00.0,38.5,31.6,28.1,0000.0,0014.13,0005.66,0004.79
2022-08-09 14:37:00,,0831.7,5.00,0.00,29.7,28.4,00.0,38.6,31.6,27.9,0000.0,0014.19,0005.66,0004.80
2022-08-09 14:38:00,,0831.7,5.00,0.00,29.7,28.5,00.0,38.6,31.7,27.8,0000.0,0013.68,0005.67,0004.81
2022-08-09 14:39:00,,0831.7,5.00,0.00,29.8,28.5,00.0,38.6,31.7,27.6,0000.0,0013.42,0005.69,0004.81
2022-08-09 14:40:00,,0831.7,5.00,0.00,29.8,28.6,00.0,38.6,31.7,28.9,0000.0,0013.69,0005.73,0004.80
2022-08-09 14:41:00,,0831.7,5.00,0.00,29.8,28.7,00.0,38.6,31.8,28.9,0000.0,0013.70,0005.72,0004.79
2022-08-09 14:42:00,,0831.7,5.00,0.00,29.8,28.8,00.0,38.6,31.8,29.0,0000.0,0013.84,0005.71,0004.79
2022-08-09 14:43:00,,0831.7,5.00,0.00,29.8,28.8,00.0,38.6,31.8,28.8,0000.0,0013.49,0005.69,0004.79
2022-08-09 14:44:00,,0831.7,5.00,0.00,29.9,28.7,00.0,38.6,31.8,28.8,0000.0,0012.90,0005.68,0004.78
2022-08-09 14:45:00,,0831.7,5.00,0.00,29.9,28.1,00.0,38.6,31.6,28.7,0000.0,0013.46,0005.69,0004.78
2022-08-09 14:46:00,,0831.7,5.00,0.00,29.8,27.6,00.0,38.6,31.5,29.2,0000.0,0013.43,0005.65,0004.79
2022-08-09 14:47:00,,0831.7,5.01,0.00,29.8,27.6,00.0,38.5,31.5,29.4,0000.0,0012.95,0005.62,0004.78
2022-08-09 14:48:00,,0831.7,4.99,0.00,29.7,27.6,00.0,38.5,31.4,28.1,0000.0,0012.47,0005.66,0004.77
2022-08-09 14:49:00,,0831.7,5.01,0.00,29.7,27.7,00.0,38.5,31.4,29.1,0000.0,0012.66,0005.66,0004.76
2022-08-09 14:50:00,,0831.7,4.99,0.00,29.7,27.9,00.0,38.5,31.5,28.5,0000.0,0012.35,0005.65,0004.75
2022-08-09 14:51:00,,0831.8,5.01,0.00,29.7,28.0,00.0,38.5,31.5,28.5,0000.0,0012.17,0005.65,0004.75
2022-08-09 14:52:00,,0831.7,4.99,0.00,29.7,28.1,00.0,38.5,31.5,28.8,0000.0,0012.38,0005.67,0004.76
2022-08-09 14:53:00,,0831.7,4.99,0.00,29.7,28.3,00.0,38.5,31.6,28.8,0000.0,0012.74,0005.69,0004.78
2022-08-09 14:54:00,,0831.7,5.00,0.00,29.7,28.4,00.0,38.5,31.6,28.9,0000.0,0012.20,0005.71,0004.77
2022-08-09 14:55:00,,0831.7,5.00,0.00,29.7,28.5,00.0,38.5,31.6,28.6,0000.0,0012.06,0005.72,0004.76
2022-08-09 14:56:00,,0831.8,5.00,0.00,29.7,28.6,00.0,38.5,31.7,29.1,0000.0,0011.48,0005.75,0004.75
2022-08-09 14:57:00,,0831.7,5.00,0.00,29.8,28.7,00.0,38.5,31.7,28.6,0000.0,0011.69,0005.79,0004.75
2022-08-09 14:58:00,,0831.8,5.00,0.00,29.8,28.7,00.0,38.6,31.8,28.3,0000.0,0011.79,0005.80,0004.75
2022-08-09 14:59:00,,0831.7,5.00,0.00,29.8,28.8,00.0,38.6,31.7,28.6,0000.0,0011.88,0005.83,0004.75
